Location: Izdebno
(52.6670°N, 16.2170°E)
Time: 02:51:13
(UTC+02:00)

Transit 4A - Pass Details

Date: 29 February 2024
Orbit: 871 x 972 km, 66.8° (Epoch: 22 April)

Event Time Altitude Azimuth Distance (km) Brightness Sun altitude
Rises 07:22:03 0° 318° (NW) 3,521 10.4 4.8°
Reaches altitude 10° 07:24:42 10° 325° (NW) 2,565 9.8 5.2°
Maximum altitude 07:30:21 44° 37° (NE) 1,207 8.8 6.0°
Drops below altitude 10° 07:35:53 10° 109° (ESE) 2,522 13.5 6.8°
Sets 07:38:29 0° 116° (ESE) 3,455 13.5 7.2°
